Overview Statistics Trail Chart Weather Telemetry Raw packets
 

This is the latest recevied weather packets stored in our database for station/object KD8DNS. If no packets are shown the sender has not sent any weather packets the latest 10 day(s).

<< 43 44 45 46 47 48 49 >>
Time Temp. Humidity Pressure Rain* Wind** Luminosity Snow
1788379136 35.56° C 49% 1019.7 hPa 0 mm - 517 W/m² -
1788378836 35.56° C 50% 1019.8 hPa 0 mm - 529 W/m² -
1788378531 35.56° C 50% 1020 hPa 0 mm - 561 W/m² -
1788378225 35.56° C 50% 1019.8 hPa 0 mm - 538 W/m² -
1788377920 35.56° C 48% 1020 hPa 0 mm - 496 W/m² -
1788377616 35.56° C 49% 1020.1 hPa 0 mm - 489 W/m² -
1788377315 35.56° C 50% 1020.3 hPa 0 mm - 505 W/m² -
1788377013 35.56° C 48% 1020.1 hPa 0 mm - 539 W/m² -
1788376708 35.56° C 50% 1020.2 hPa 0 mm - 556 W/m² -
1788376404 35.56° C 48% 1020.4 hPa 0 mm - 530 W/m² -
1788376099 35.56° C 47% 1020.3 hPa 0 mm - 565 W/m² -
1788375798 36.11° C 48% 1020.5 hPa 0 mm - 578 W/m² -
1788375494 36.11° C 49% 1020.2 hPa 0 mm - 600 W/m² -
1788375189 35.56° C 50% 1020.3 hPa 0 mm - 599 W/m² -
1788374885 35.56° C 47% 1020.3 hPa 0 mm - 551 W/m² -
1788374580 35.56° C 51% 1020.6 hPa 0 mm - 588 W/m² -
1788374275 35° C 51% 1020.5 hPa 0 mm - 636 W/m² -
1788373972 35.56° C 49% 1020.6 hPa 0 mm - 661 W/m² -
1788373667 35.56° C 50% 1020.5 hPa 0 mm - 652 W/m² -
1788373364 35.56° C 50% 1020.5 hPa 0 mm - 664 W/m² -
1788373060 35.56° C 54% 1020.9 hPa 0 mm - 638 W/m² -
1788372760 35.56° C 52% 1021 hPa 0 mm - 639 W/m² -
1788372454 35.56° C 50% 1020.8 hPa 0 mm - 635 W/m² -
1788372150 35.56° C 52% 1020.9 hPa 0 mm - 599 W/m² -
1788371845 35.56° C 53% 1021.1 hPa 0 mm - 617 W/m² -

* Rain latest hour (hover to see other rain measurements)
** Current wind speed in m/s (hover to see current wind gust speed)